Location: Unspecified
(48.5670°N, 0.0000°E)
Time: 11:46:54
(UTC+00:00)

Transit 4A - Pass Details

Date: 31 August 2019
Orbit: 865 x 980 km, 66.8° (Epoch: 19 September)

Event Time Altitude Azimuth Distance (km) Brightness Sun altitude
Rises 00:32:22 0° 324° (NW) 3,640 11.6 -32.2°
Reaches altitude 10° 00:34:58 10° 326° (NW) 2,676 10.8 -32.1°
Enters shadow 00:40:20 66° 348° (NNW) 1,014 8.1 -32.0°
